This demonstration page uses our WeatherBlox Daily Observations layout. Learn more.

Left ArrowRight Arrow

40.92945, -100.16068

Hourly Observations for June 24, 2016

Temp ( °F °C ) Dew Point ( °F °C ) Humidity (%) Winds ( mph kmh ) Pressure ( in mb ) Visibility ( mi km ) Precip ( " mm )
12:15 am 00:15 Clear 72 22 62 16.6 72 72 S 3 6 29.94 1014 10 16 N/A
12:35 am 00:35 Clear 70 21 63 17 78 78 S 3 6 29.94 1014 10 16 N/A
12:55 am 00:55 Clear 70 21.2 62 16.7 76 76 SE 7 11 29.94 1014 10 16 N/A
1:15 am 01:15 Clear 71 21.6 62 16.5 73 73 SE 8 13 29.91 1013 10 16 N/A
1:35 am 01:35 Clear 70 21.2 62 16.6 75 75 ESE 7 11 29.91 1013 10 16 N/A
1:55 am 01:55 Clear 70 21 62 16.5 76 76 SE 8 13 29.91 1013 10 16 N/A
2:15 am 02:15 Clear 70 20.9 62 16.5 76 76 SE 9 15 29.91 1013 10 16 N/A
2:35 am 02:35 Clear 70 21 61 16.1 74 74 SE 10 17 29.88 1012 10 16 N/A
2:55 am 02:55 Clear 71 21.5 61 15.9 71 71 SE 13 20 29.88 1012 10 16 N/A
3:15 am 03:15 Clear 71 21.4 60 15.6 70 70 SE 12 19 29.88 1012 10 16 N/A
3:35 am 03:35 Clear 70 21.1 60 15.5 71 71 SE 10 17 29.88 1012 10 16 N/A
3:55 am 03:55 Clear 70 21.3 60 15.5 70 70 SSE 10 17 29.88 1012 10 16 N/A
4:15 am 04:15 Clear 70 21 60 15.7 72 72 S 5 7 29.88 1012 10 16 N/A
4:35 am 04:35 Clear 70 21 61 16 73 73 N N/A 29.88 1012 10 16 N/A
4:55 am 04:55 Clear 69 20.5 61 16 76 76 N N/A 29.88 1012 10 16 N/A
5:15 am 05:15 Clear 69 20.3 61 15.9 76 76 N N/A 29.88 1012 10 16 N/A
5:35 am 05:35 Clear 67 19.3 61 16.1 82 82 SE 5 7 29.91 1013 10 16 N/A
5:55 am 05:55 Clear 69 20.5 62 16.5 78 78 SE 7 11 29.88 1012 10 16 N/A
6:15 am 06:15 Sunny 69 20.6 62 16.5 77 77 SSE 7 11 29.88 1012 10 16 N/A
6:35 am 06:35 Sunny 68 20 62 16.7 81 81 SSE 5 7 29.88 1012 10 16 N/A
6:55 am 06:55 Sunny 69 20.3 63 17 81 81 SSE 3 6 29.88 1012 10 16 N/A
7:15 am 07:15 Sunny 69 20.5 63 17 80 80 SE 6 9 29.88 1012 10 16 N/A
7:35 am 07:35 Sunny 69 20.6 62 16.9 79 79 SSE 9 15 29.88 1012 10 16 N/A
7:55 am 07:55 Sunny 70 20.9 63 17 78 78 SSE 13 20 29.88 1012 10 16 N/A
8:15 am 08:15 Sunny 71 21.5 63 17.2 77 77 SSE 13 20 29.88 1012 10 16 N/A
8:35 am 08:35 Sunny 71 21.8 64 17.5 77 77 SSE 12 19 29.88 1012 10 16 N/A
8:55 am 08:55 Sunny 71 21.8 64 17.6 77 77 SSE 12 19 29.88 1012 10 16 N/A
9:15 am 09:15 Sunny 72 22 64 17.9 78 78 SSE 9 15 29.88 1012 10 16 N/A
9:35 am 09:35 Sunny 72 22.4 65 18.4 78 78 SSW 10 17 29.88 1012 10 16 N/A
9:55 am 09:55 Sunny 75 24 66 19.1 74 74 SW 7 11 29.85 1011 10 16 N/A
10:15 am 10:15 Sunny 77 25.1 67 19.7 72 72 SW 5 7 29.85 1011 10 16 N/A
10:35 am 10:35 Sunny 78 25.7 67 19.6 69 69 SSW 3 6 29.85 1011 10 16 N/A
10:55 am 10:55 Sunny 81 27.1 68 20.2 66 66 S 7 11 29.80 1009 10 16 N/A
11:15 am 11:15 Sunny 83 28.2 68 20.2 62 62 S 8 13 29.80 1009 10 16 N/A
11:35 am 11:35 Sunny 84 29 67 19.6 57 57 S 14 22 29.80 1009 10 16 N/A
11:55 am 11:55 Sunny 85 29.2 65 18.4 52 52 SSE 17 28 29.80 1009 10 16 N/A
12:15 pm 12:15 Sunny 85 29.5 65 18.3 51 51 SSE 15 24 29.80 1009 10 16 N/A
12:35 pm 12:35 Sunny 85 29.5 65 18.6 52 52 SSE 14 22 29.80 1009 10 16 N/A
12:55 pm 12:55 Sunny 86 30.1 66 19 51 51 S 17 28 29.77 1008 10 16 N/A
1:15 pm 13:15 Sunny 86 30.2 66 18.8 50 50 S 17 28 29.77 1008 10 16 N/A
1:35 pm 13:35 Sunny 87 30.5 66 19 50 50 S 18 30 29.77 1008 10 16 N/A
1:55 pm 13:55 Sunny 87 30.7 66 19 50 50 SSE 15 24 29.74 1007 10 16 N/A
2:15 pm 14:15 Sunny 87 30.6 66 19.1 50 50 S 14 22 29.74 1007 10 16 N/A
2:35 pm 14:35 Sunny 88 31 66 19 49 49 S 17 28 29.74 1007 10 16 N/A
2:55 pm 14:55 Sunny 88 31.2 67 19.4 49 49 SSE 15 24 29.74 1007 10 16 N/A
3:15 pm 15:15 Sunny 89 31.7 67 19.4 48 48 S 17 28 29.74 1007 10 16 N/A
3:35 pm 15:35 Sunny 89 31.8 67 19.2 47 47 S 15 24 29.71 1006 10 16 N/A
3:55 pm 15:55 Sunny 90 32.1 67 19.3 47 47 SSE 17 28 29.71 1006 10 16 N/A
4:15 pm 16:15 Sunny 90 32.2 65 18.5 44 44 SSE 16 26 29.71 1006 10 16 N/A
4:35 pm 16:35 Sunny 91 32.5 65 18.6 44 44 SSE 16 26 29.71 1006 10 16 N/A
4:55 pm 16:55 Sunny 90 32.3 65 18.2 43 43 SSE 18 30 29.68 1005 10 16 N/A
5:15 pm 17:15 Sunny 90 32.2 64 17.9 43 43 SSE 18 30 29.68 1005 10 16 N/A
5:35 pm 17:35 Sunny 90 32.4 64 18 42 42 SE 15 24 29.68 1005 10 16 N/A
5:55 pm 17:55 Sunny 90 32.4 65 18.3 43 43 SSE 18 30 29.68 1005 10 16 N/A
6:15 pm 18:15 Sunny 90 32.2 66 18.7 45 45 SSE 16 26 29.68 1005 10 16 N/A
6:35 pm 18:35 Sunny 90 32 66 18.9 46 46 SSE 16 26 29.68 1005 10 16 N/A
6:55 pm 18:55 Sunny 90 32 66 18.7 45 45 SSE 15 24 29.68 1005 10 16 N/A
7:15 pm 19:15 Sunny 89 31.7 67 19.4 48 48 SE 14 22 29.65 1004 10 16 N/A
7:35 pm 19:35 Sunny 88 31.3 68 19.9 51 51 SSE 15 24 29.65 1004 10 16 N/A
7:55 pm 19:55 Sunny 87 30.7 68 19.8 52 52 SSE 14 22 29.65 1004 10 16 N/A
8:15 pm 20:15 Sunny 87 30.4 68 19.8 53 53 SE 14 22 29.65 1004 10 16 N/A
8:35 pm 20:35 Sunny 85 29.7 69 20.5 58 58 SSE 14 22 29.65 1004 10 16 N/A
8:55 pm 20:55 Sunny 85 29.3 69 20.5 59 59 SSE 14 22 29.65 1004 10 16 N/A
9:15 pm 21:15 Clear 84 29 69 20.5 60 60 SSE 15 24 29.65 1004 10 16 N/A
9:35 pm 21:35 Clear 83 28.5 69 20.5 62 62 SSE 14 22 29.68 1005 10 16 N/A
9:55 pm 21:55 Clear 83 28.3 69 20.6 63 63 SSE 14 22 29.68 1005 10 16 N/A
10:15 pm 22:15 Clear 83 28.1 69 20.6 64 64 SSE 14 22 29.71 1006 10 16 N/A
10:35 pm 22:35 Clear 82 27.6 69 20.6 66 66 SSE 15 24 29.71 1006 10 16 N/A
10:55 pm 22:55 Clear 81 27.4 69 20.7 67 67 SSE 14 22 29.71 1006 10 16 N/A
11:15 pm 23:15 Clear 81 27.2 69 20.7 68 68 SSE 14 22 29.74 1007 10 16 N/A
11:35 pm 23:35 Clear 81 27 69 20.6 68 68 SSE 12 19 29.74 1007 10 16 N/A
11:55 pm 23:55 Clear 79 26.3 69 20.7 71 71 SSE 12 19 29.74 1007 10 16 N/A

Powered by AerisWeather